Weather History for Mosul, Iraq

Change the Weather History Date:

Friday, January 18, 2013

  Actual Average Record
Temperature  
Mean Temperature 42 °F -  
Max Temperature 57 °F - - ()
Min Temperature 28 °F - - ()
Degree Days  
Heating Degree Days 22    
Moisture  
Dew Point 33 °F    
Average Humidity 72    
Maximum Humidity 95    
Minimum Humidity 28    
Precipitation  
Precipitation 0.00 in - - ()
Sea Level Pressure  
Sea Level Pressure 30.22 in    
Wind  
Wind Speed 0 mph ()    
Max Wind Speed 9 mph    
Max Gust Speed -    
Visibility 5.4 miles    
Events      
T = Trace of Precipitation, MM = Missing Value Source: Averaged Metar Reports

Daily Weather History Graph

Daily Weather History Graph

Search for Another Location

Airport:

Trip Planner

Search our weather history database for the weather conditions in past years. The results will help you decide how hot, cold, wet, or windy it might be!

Date:

Astronomy

Jan. 18, 2013 Rise Set
Actual Time 7:17 AM AST 5:18 PM AST
Civil Twilight 6:49 AM AST 5:46 PM AST
Nautical Twilight 6:17 AM AST 6:18 PM AST
Astronomical Twilight 5:46 AM AST 6:49 PM AST
Moon 10:57 AM AST (1/18) No Moon Set
Length of Visible Light 10h 57m
Length of Day
10h 01m
Waxing Crescent, 44% of the Moon is Illuminated
Jan 18
Waxing Crescent
Jan 19
First Quarter
Jan 27
Full
Feb 3
Last Quarter
Feb 10
New

Hourly Weather History & Observations

Time (AST) Temp. Dew Point Humidity Pressure Visibility Wind Dir Wind Speed Gust Speed Precip Events Conditions
12:00 AM 31 °F 28 °F 84% 30.33 in 6 mi Calm Calm - -  
12:00 AM 35.6 °F 30.2 °F 81% 30.24 in - Calm Calm - N/A   Clear
1:00 AM 33.8 °F 28.4 °F 81% 30.24 in - Calm Calm - N/A   Clear
2:00 AM 32.0 °F 28.4 °F 87% 30.24 in - Calm Calm - N/A   Clear
3:00 AM 31 °F 30 °F 95% 30.33 in 6 mi Calm Calm - -  
3:00 AM 32.0 °F 28.4 °F 87% 30.24 in - Calm Calm - N/A   Clear
6:00 AM 28 °F 25 °F 85% 30.32 in 6 mi Calm Calm - -  
6:00 AM 30.2 °F 26.6 °F 86% 30.24 in - Calm Calm - N/A   Clear
7:00 AM 30.2 °F 26.6 °F 86% 30.21 in - Calm Calm - N/A   Clear
8:00 AM 30.2 °F 26.6 °F 86% 30.24 in 5.6 mi Calm Calm - N/A   Clear
9:00 AM 33 °F - % 30.33 in 6 mi Calm Calm - -  
9:00 AM 35.6 °F 30.2 °F 81% 30.24 in 3.7 mi Calm Calm - N/A   Clear
10:00 AM 39.2 °F 32.0 °F 75% 30.24 in 3.7 mi Calm Calm - N/A   Clear
11:00 AM 44.6 °F 33.8 °F 66% 30.24 in 5.6 mi Calm Calm - N/A   Clear
12:00 PM 46 °F 33 °F 48% 30.29 in 6 mi Calm Calm - -   Clear
12:00 PM 46.4 °F 33.8 °F 62% 30.21 in - Calm Calm - N/A   Clear
1:00 PM 50.0 °F 32.0 °F 50% 30.18 in - Calm Calm - N/A   Clear
2:00 PM 51.8 °F 33.8 °F 50% 30.15 in - Calm Calm - N/A   Clear
3:00 PM 57 °F 33 °F 28% 30.19 in 6 mi East 8.9 mph - -   Scattered Clouds
3:00 PM 53.6 °F 37.4 °F 54% 30.15 in - Variable 2.3 mph - N/A   Clear
4:00 PM 55.4 °F 37.4 °F 51% 30.15 in - ESE 4.6 mph - N/A   Clear
5:00 PM 53.6 °F 42.8 °F 67% 30.15 in - Calm Calm - N/A   Clear
6:00 PM 47 °F 36 °F 56% 30.20 in 4 mi Calm Calm - -   Haze
6:00 PM 48.2 °F 42.8 °F 82% 30.15 in - Calm Calm - N/A   Clear
7:00 PM 44.6 °F 39.2 °F 81% 30.15 in - Calm Calm - N/A   Clear
8:00 PM 42.8 °F 37.4 °F 81% 30.15 in - Calm Calm - N/A   Clear
9:00 PM 44 °F 33 °F 56% 30.24 in 6 mi Calm Calm - -  
9:00 PM 41.0 °F 35.6 °F 81% 30.18 in - Calm Calm - N/A   Clear
10:00 PM 39.2 °F 35.6 °F 87% 30.18 in - Calm Calm - N/A   Clear
11:00 PM 39.2 °F 35.6 °F 87% 30.18 in - Calm Calm - N/A   Clear